"Pseudo-MPEC" for P21DpSR

Created 2023 Mar 22 16:22:16 UT using Find_Orb

Click here for an explanation of pseudo-MPECs

 
 Astrometry: 
     P21DpSR* C2023 03 16st_j@G0Y?6ge*BA!#L%gbsIa(F4b4a7s,1tpDj5AstrometryZXUF52
     P21DpSR  C2023 03 16dTredacted;vf2ESe?#L!Yriu,+fZ7wT-AEvclickVWQ@1N`wP,QF52
     P21DpSR  C2023 03 16o%.Ag9p!)4lZhyVgO2x'Rd/ma_y8/$FP*gDhereT*x/32!mTTIB*F52
     P21DpSR  C2023 03 165@for1B*explanation@5FY4^hl_sv=+0o:w'pk[JnWT^R?69o\MF52
     P21DpSR  C2023 03 16)uouZhK`_VKTKH5AmqkNsZ=gOS:2Nca.R2IkCtnB5ij`4,54`ob@F52

Station data:
(F52) Pan-STARRS 2, Haleakala  (N20.707382 W156.255910)  US/Hawaii.
   Observers J. Bulger, T. Dukes, T. Lowe, A. Schultz, M. Willman. Measurers
   K. Chambers, S. Chastel, T. de Boer, L. Denneau, J. Fairlamb, H.
   Flewelling, M. Huber, C.-C. Lin, E. Magnier, Y. Ramanjooloo, R. Wainscoat,
   R. Weryk. 1.8-m Ritchey-Chrétien + CCD.

Orbital elements:  P21DpSR
   Perihelion 2022 May 16.72094 +/- 288 TT = 17:18:09 (JD 2459716.22094)
Epoch 2023 Mar 16.0 TT = JDT 2460019.5   Earth MOID: 0.7473      AutoNEOCP
M 118.94864081 +/- 100              (J2000 ecliptic)
n   0.39220855 +/- 0.158            Peri.   28.66358 +/- 70
a   1.84838033 +/- 0.497            Node    21.84365 +/- 23
e   0.0619254 +/- 0.192             Incl.   17.38853 +/- 22
P   2.51/917.86d           H 19.99  G  0.15   U 11.5  SR
q 1.73391856 +/- 0.498    Q 1.96284210 +/- 1.49
From 5 observations 2023 Mar. 16 (2.8 hr); mean residual 0".17
Residuals in arcseconds: 
230316 F52  .26-  .18+    230316 F52  .06-  .10-    230316 F52  .06-  .02+    
230316 F52  .38+  .14-    230316 F52  .00   .04+    

Ephemerides (geocentric):
Date (UTC) HH   RA             Dec           delta  r     elong  mag " sig PA
---- --------  ------------   ------------  ------ ------ -----  --- --------
2023 03 22 16  12 08 42.590   +14 46 51.02  .93416 1.9132 164.6 21.9  600   2
2023 03 22 17  12 08 38.498   +14 46 41.36  .93420 1.9132 164.6 21.9  607   2
2023 03 22 18  12 08 34.407   +14 46 31.68  .93424 1.9132 164.6 21.9  613   2
2023 03 22 19  12 08 30.316   +14 46 21.96  .93428 1.9133 164.6 21.9  620   2
2023 03 22 20  12 08 26.226   +14 46 12.21  .93432 1.9133 164.6 21.9  626   2
2023 03 22 21  12 08 22.136   +14 46 02.44  .93436 1.9133 164.6 21.9  633   2
2023 03 22 22  12 08 18.047   +14 45 52.63  .93440 1.9133 164.6 21.9  640   2
2023 03 22 23  12 08 13.958   +14 45 42.80  .93444 1.9134 164.5 21.9  646   2
2023 03 23 00  12 08 09.869   +14 45 32.94  .93449 1.9134 164.5 21.9  653   1
2023 03 23 01  12 08 05.781   +14 45 23.04  .93453 1.9134 164.5 21.9  660   1
2023 03 23 02  12 08 01.693   +14 45 13.12  .93457 1.9134 164.5 21.9  667   1
2023 03 23 03  12 07 57.606   +14 45 03.16  .93462 1.9135 164.5 21.9  674   1
2023 03 23 04  12 07 53.519   +14 44 53.18  .93466 1.9135 164.5 21.9  681   1
2023 03 23 05  12 07 49.432   +14 44 43.16  .93470 1.9135 164.5 21.9  688   1
2023 03 23 06  12 07 45.347   +14 44 33.12  .93475 1.9136 164.5 21.9  695   1
2023 03 23 07  12 07 41.261   +14 44 23.04  .93479 1.9136 164.4 21.9  702   1
2023 03 23 08  12 07 37.176   +14 44 12.94  .93484 1.9136 164.4 21.9  709   1
2023 03 23 09  12 07 33.092   +14 44 02.80  .93489 1.9136 164.4 21.9  717   1
2023 03 23 10  12 07 29.008   +14 43 52.64  .93493 1.9137 164.4 21.9  724   1
2023 03 23 11  12 07 24.925   +14 43 42.44  .93498 1.9137 164.4 21.9  731   1
2023 03 23 12  12 07 20.842   +14 43 32.22  .93503 1.9137 164.4 21.9  738   1
2023 03 23 13  12 07 16.760   +14 43 21.96  .93508 1.9137 164.4 21.9  746   0
2023 03 23 14  12 07 12.679   +14 43 11.68  .93513 1.9138 164.3 21.9  753   0
2023 03 23 15  12 07 08.598   +14 43 01.36  .93517 1.9138 164.3 21.9  761   0
2023 03 23 16  12 07 04.518   +14 42 51.01  .93522 1.9138 164.3 21.9  768   0
2023 03 23 17  12 07 00.438   +14 42 40.64  .93527 1.9138 164.3 21.9  776   0
2023 03 23 18  12 06 56.359   +14 42 30.23  .93532 1.9139 164.3 21.9  784   0
2023 03 23 19  12 06 52.281   +14 42 19.80  .93538 1.9139 164.3 21.9  791   0
2023 03 23 20  12 06 48.203   +14 42 09.33  .93543 1.9139 164.2 21.9  799   0
2023 03 23 21  12 06 44.126   +14 41 58.84  .93548 1.9139 164.2 21.9  807   0
2023 03 23 22  12 06 40.049   +14 41 48.31  .93553 1.9140 164.2 21.9  815   0
2023 03 23 23  12 06 35.973   +14 41 37.75  .93558 1.9140 164.2 21.9  823   0
2023 03 24 00  12 06 31.898   +14 41 27.17  .93564 1.9140 164.2 21.9  831   0
2023 03 24 01  12 06 27.824   +14 41 16.55  .93569 1.9140 164.2 21.9  839   0
2023 03 24 02  12 06 23.750   +14 41 05.90  .93574 1.9141 164.1 21.9  847 179
2023 03 24 03  12 06 19.677   +14 40 55.23  .93580 1.9141 164.1 21.9  855 179
2023 03 24 04  12 06 15.605   +14 40 44.52  .93585 1.9141 164.1 21.9  863 179
2023 03 24 05  12 06 11.534   +14 40 33.78  .93591 1.9141 164.1 21.9  871 179
2023 03 24 06  12 06 07.463   +14 40 23.01  .93596 1.9142 164.1 21.9  879 179
2023 03 24 07  12 06 03.393   +14 40 12.22  .93602 1.9142 164.1 21.9  888 179
2023 03 24 08  12 05 59.324   +14 40 01.39  .93608 1.9142 164.0 21.9  896 179
2023 03 24 09  12 05 55.256   +14 39 50.53  .93613 1.9143 164.0 21.9  905 179
2023 03 24 10  12 05 51.188   +14 39 39.64  .93619 1.9143 164.0 21.9  913 179
2023 03 24 11  12 05 47.121   +14 39 28.72  .93625 1.9143 164.0 21.9  922 179
2023 03 24 12  12 05 43.055   +14 39 17.78  .93631 1.9143 164.0 21.9  930 179
2023 03 24 13  12 05 38.990   +14 39 06.80  .93636 1.9144 164.0 21.9  939 179
2023 03 24 14  12 05 34.926   +14 38 55.79  .93642 1.9144 163.9 21.9  947 179
2023 03 24 15  12 05 30.862   +14 38 44.75  .93648 1.9144 163.9 21.9  956 179